• Processing (Info)

  • MPEC 2018-W25 : 2018 VK10

    The following Minor Planet Electronic Circular may be linked-to from your own Web pages, but must not otherwise be redistributed electronically.

    A form allowing access to any MPEC is at the bottom of this page.


    Read MPEC 2018-W24 Read MPEC 2018-W26


    M.P.E.C. 2018-W25                                Issued 2018 Nov. 18, 22:09 UT
    
         The Minor Planet Electronic Circulars contain information on unusual
             minor planets and routine data on comets.  They are published
        on behalf of Division F of the International Astronomical Union by the
              Minor Planet Center, Smithsonian Astrophysical Observatory,
                              Cambridge, MA 02138, U.S.A.
    
                 Prepared using the Tamkin Foundation Computer Network
    
                                  MPC@CFA.HARVARD.EDU
                URL https://www.minorplanetcenter.net/    ISSN 1523-6714
    
                                       2018 VK10
    
    Observations:
         K18V10K  C2018 11 15.50648 09 14 46.56 +23 02 35.3          20.5 VoEW025691
         K18V10K  C2018 11 15.51097 09 14 47.53 +23 02 21.8          20.5 VoEW025691
         K18V10K  C2018 11 15.51547 09 14 48.52 +23 02 07.8          20.7 VoEW025691
         K18V10K*HC2018 11 15.53259 09 14 52.20 +23 01 16.3          20.5 RoEW025691
         K18V10K HC2018 11 15.53380 09 14 52.50 +23 01 12.8          20.5 RoEW025691
         K18V10K HC2018 11 15.53501 09 14 52.75 +23 01 09.1          20.4 RoEW025691
         K18V10K  C2018 11 15.98995 09 16 33.75 +22 37 52.7          20.9 VSEW025033
         K18V10K  C2018 11 15.99351 09 16 34.55 +22 37 41.8          21.5 VSEW025033
         K18V10K  C2018 11 15.99707 09 16 35.29 +22 37 31.0          21.1 VSEW025033
         K18V10K  C2018 11 16.00063 09 16 36.11 +22 37 20.2          21.7 VSEW025033
         K18V10K  C2018 11 16.13358 09 17 05.11 +22 30 31.9          21.2 VSEW025033
         K18V10K  C2018 11 16.13713 09 17 05.92 +22 30 21.0          21.0 VSEW025033
         K18V10K KC2018 11 16.41777 09 18 08.16 +22 15 52.0          20.1 GUEW025H36
         K18V10K KC2018 11 16.42221 09 18 09.35 +22 15 38.7          21.0 RoEW025291
         K18V10K KC2018 11 16.42329609 18 09.24 +22 15 34.3          20.5 VuEW025H21
         K18V10K KC2018 11 16.42410 09 18 09.74 +22 15 32.8          21.0 RoEW025291
         K18V10K KC2018 11 16.42701 09 18 10.19 +22 15 23.0          20.7 GUEW025H36
         K18V10K KC2018 11 16.43114609 18 10.95 +22 15 09.8          20.8 VuEW025H21
         K18V10K KC2018 11 16.43625 09 18 12.17 +22 14 53.6          20.2 GUEW025H36
         K18V10K KC2018 11 16.49219 09 18 24.52 +22 12 01.0          21.0 RoEW025291
         K18V10K KC2018 11 16.49453 09 18 25.04 +22 11 53.6          20.3 RoEW025291
         K18V10K KC2018 11 16.49688 09 18 25.54 +22 11 46.2          20.8 RoEW025291
         K18V10K KC2018 11 17.07013509 20 32.89 +21 41 31.7          21.2 GVEW025L01
         K18V10K IC2018 11 17.07364209 20 33.67 +21 41 19.7          21.3 GVEW025L01
         K18V10K KV2018 11 17.38264 09 21 42.40 +21 24 50.5          21.0 GVEW025247
         K18V10K  v2018 11 17.38264 1 248.2384   +40.4490    1550           EW025247
         K18V10K KV2018 11 17.40382 09 21 47.03 +21 23 42.9          20.9 GVEW025247
         K18V10K  v2018 11 17.40382 1 248.2384   +40.4490    1550           EW025247
         K18V10K KC2018 11 18.49937 09 25 50.68 +20 23 52.5                oEW025691
         K18V10K KC2018 11 18.50801 09 25 52.53 +20 23 23.0                oEW025691
         K18V10K KC2018 11 18.51665 09 25 54.36 +20 22 54.3                oEW025691
    
    Observer details:
    033 Karl Schwarzschild Observatory, Tautenburg.  Observers C. Hoegner,
        B. Stecklum.  Measurer B. Stecklum.  1.34-m f/3 Schmidt + CCD.
    247 Roving Observer.  Observer B. Sheets.  0.35-m f/6.2 Schmidt-Cassegrain +
        CCD.
    291 LPL/Spacewatch II.  Observer R. A. Mastaler.  1.8-m f/2.7 reflector + CCD.
    691 Steward Observatory, Kitt Peak-Spacewatch.  Observers R. A. Mastaler,
        R. S. McMillan.  0.9-m f/3 reflector + CCD.
    H21 Astronomical Research Observatory, Westfield.  Observer R. Holmes.
        Measurers S. Foglia, L. Buzzi, T. Linder, R. Holmes.  0.76-m f/3.0
        astrograph + CCD.
    H36 Sandlot Observatory, Scranton.  Observer G. Hug.  0.56-m reflector + CCD.
    L01 Visnjan Observatory, Tican.  Observers K. Korlevic, G. Kervina,
        R. Jenko.  Measurer K. Korlevic.  1.0-m f/2.9 reflector + CCD.
    
    Orbital elements:
    2018 VK10                                                Earth MOID = 0.1583 AU
    Epoch 2019 Apr. 27.0 TT = JDT 2458600.5                 MPC
    M  28.78461              (2000.0)            P               Q
    n   0.29116007     Peri.  238.64711     -0.78459390     -0.45856493
    a   2.2544893      Node   270.95261     +0.60723950     -0.70423743
    e   0.5620111      Incl.   24.66722     -0.12519022     -0.54200355
    P   3.39           H   19.6           G   0.15           U   9
    Residuals in seconds of arc
    181115 691  0.2-  0.0     181116 033  0.7-  0.0     181116 291  0.1+  0.0
    181115 691  0.2-  0.1+    181116 033  0.2-  0.0     181116 291  0.0   0.1-
    181115 691  0.1+  0.3-    181116 H36  0.0   0.4+    181117 L01  0.3+  0.0
    181115 691  0.1-  0.0     181116 291  0.1+  0.1+    181117 L01  0.5+  0.8-
    181115 691  0.5+  0.2+    181116 H21  0.3-  0.1-    181117 247  0.1-  0.1-
    181115 691  0.3+  0.1+    181116 291  0.2-  0.1+    181117 247  0.3-  0.2+
    181115 033  0.0   0.1-    181116 H36  0.3+  0.2+    181118 691  0.6+  0.5+
    181115 033  0.2+  0.1-    181116 H21  0.2-  0.2-    181118 691  0.1+  0.2-
    181115 033  0.4-  0.0     181116 H36  0.0   0.5-    181118 691  0.6-  0.1-
    181116 033  0.2+  0.1+    181116 291  0.1-  0.1+
    
    Ephemeris:
    2018 VK10                a,e,i = 2.25, 0.56, 25                  q = 0.9874
    Date    TT    R. A. (2000) Decl.     Delta      r     Elong.  Phase     V
    2018 10 19    07 37 40.7 +37 42 59   0.9971  1.4720    95.2    42.4    22.1
    ...
    2018 11 03    08 29 40.5 +31 34 37   0.7966  1.3569    98.1    46.4    21.5
    ...
    2018 11 11    08 58 19.4 +26 33 35   0.7017  1.2973    98.7    49.0    21.2
    ...
    2018 11 17    09 20 16.6 +21 45 24   0.6381  1.2540    98.6    51.2    21.0
    2018 11 18    09 23 58.9 +20 51 31   0.6282  1.2469    98.5    51.6    21.0
    2018 11 19    09 27 42.0 +19 55 53   0.6186  1.2399    98.4    52.1    20.9
    ...
    2018 11 25    09 50 21.3 +13 43 59   0.5661  1.1987    97.3    54.8    20.8
    ...
    2018 12 03    10 21 39.2 +03 46 49   0.5124  1.1472    94.6    58.9    20.6
    ...
    2018 12 18    11 25 08.5 -18 13 45   0.4734  1.0651    86.4    67.2    20.5
    
    A. U. Tomatic                (C) Copyright 2018 MPC           M.P.E.C. 2018-W25
    

    Read MPEC 2018-W24 Read MPEC 2018-W26


    MPEC number:

    Enter an MPEC number in one of the following forms:

    • 1997-B01 (the full form)
    • J97B01 (the packed version of the full form)
    • B01 (the abbreviated form)